Regional Weather Roundup
Issued by NWS

Home | Current Version | Previous Version | Text Only | Print | Product List | Glossary On
Versions: 1 2 3 4 5 6 7 8 9 10 11 12 13 14 15 16 17 18 19 20 21 22 23 24 25 26 27 28 29 30 31 32 33 34 35 36 37 38 39 40 41 42 43 44 45 46 47 48 49 50
000
ASPQ40 PGUM 241012
RWRPQ
WEATHER ROUNDUP FOR THE MARIANAS AND MICRONESIA
NATIONAL WEATHER SERVICE TIYAN GU
800 PM CHST SUN SEP 24 2017

GUZ001>004-241100-
MARIANA ISLANDS-

CITY           SKY/WX    TMP DP  RH WIND       PRES   REMARKS
GUAM AIRPORT   CLEAR     79  77  94 E5        29.92R
ANDERSEN AFB   MOCLDY    79  75  89 E6        29.92
ROTA AIRPORT   CLOUDY    79  72  78 SE12      29.90S
TINIAN AP      MOCLDY    79  75  89 SE2       29.90S
SAIPAN AP      MOCLDY    81  79  94 SE5       29.92R

$$

PMZ161-241100-
REPUBLIC OF PALAU-

CITY           SKY/WX    TMP DP  RH WIND       PRES   REMARKS
KOROR AP       MOCLDY    79  77  94 CALM      29.78R
KOROR WSO      MOCLDY    82  75  78 S8        29.80R

$$

PMZ171>174-241100-
FEDERATED STATES OF MICRONESIA-

CITY           SKY/WX    TMP DP  RH WIND       PRES   REMARKS
YAP AIRPORT    CLOUDY    79  77  94 VRB6      29.79R
CHUUK AP       LGT RAIN  82  77  83 E9        29.82R HX  91
POHNPEI AP     MOCLDY    84  77  79 E12       29.80R HX  94
POHNPEI WSO    NOT AVBL
KOSRAE AP      NOT AVBL

$$

PMZ181-241100-
REPUBLIC OF THE MARSHALL ISLANDS-

CITY           SKY/WX    TMP DP  RH WIND       PRES   REMARKS
KWAJALEIN AP   PTCLDY    84  77  79 E15       29.83S HX  94
MAJURO AP      NOT AVBL
MAJURO WSO     MOCLDY    84  77  79 E10       29.81R HX  94

$$




USA.gov is the U.S. government's official web portal to all federal, state and local government web resources and services.